Home   Weather   Lidzbark Warmiński   Past weeks

Flag for Poland Past Weather in Lidzbark Warmiński, Poland — Yesterday and Last 2 Weeks

Now
65 °F

Mild.


Feels Like: 65 °F
Forecast: 57 / 69 °F
Wind: 5 mph from West

Location: Ketrzyn

Current Time: Jul 24, 2017 at 10:43:52 am

Latest Report: Jul 24, 2017 at 10:00 am


Visibility: 19 mi

Pressure: 29.80 "Hg

Humidity: 90%

Dew Point: 62 °F

Location of Lidzbark WarmińskiLocation

Past Weather in Lidzbark Warmiński — Graph

°F

Lidzbark Warmiński Temperature Yesterday

Maximum temperature yesterday: 72 °F (at 12:00 pm)
Minimum temperature yesterday: 55 °F (at 1:00 am)
Average temperature yesterday: 65 °F

High & Low Weather Summary for the Past Weeks

 TemperatureHumidityPressure
High79 °F (Jul 10, 5:00 pm)98% (Jul 10, 5:00 am)30.15 "Hg (Jul 10, 5:00 am)
Low48 °F (Jul 15, 4:00 am)44% (Jul 10, 4:00 pm)29.62 "Hg (Jul 13, 5:00 am)
Average63 °F75%29.94 "Hg
* Reported Jul 9 8:00 am — Jul 24 8:00 am, Lidzbark Warmiński. Weather by CustomWeather, © 2017

Note: Actual official high and low records may vary slightly from our data, if they occured in-between our weather recording intervals... More about our weather records

Advertising

Lidzbark Warmiński Weather History for the Previous 24 Hours

Scroll right to see more
 ConditionsComfort  
Time TempWeatherWind HumidityBarometerVisibility
8:00 am
Mon, Jul 24
64 °FMild.5 mph92%29.78 "Hg28 mi
7:00 am64 °FMild.3 mph94%29.79 "Hg18 mi
6:00 am62 °FFog.3 mph96%29.80 "Hg6 mi
5:00 am62 °FFog.3 mph97%29.80 "Hg5 mi
4:00 am62 °FFog.2 mph95%29.81 "Hg5 mi
3:00 am63 °FFog.3 mph95%29.81 "Hg4 mi
2:00 am64 °FFog.2 mph97%29.82 "Hg4 mi
1:00 am64 °FMild.2 mph96%29.83 "Hg7 mi
12:00 am64 °FMild.5 mph94%29.84 "Hg10 mi
11:00 pm
Sun, Jul 23
64 °FMild.5 mph93%29.85 "Hg11 mi
10:00 pm64 °FMild.5 mph92%29.86 "Hg15 mi
9:00 pm63 °FMild.3 mph91%29.87 "Hg17 mi
8:00 pm64 °FLight rain. Cloudy.3 mph92%29.88 "Hg13 mi
7:00 pm64 °FRain. Cloudy.3 mph92%29.89 "Hg4 mi
6:00 pm65 °FRain. Cloudy.2 mph92%29.92 "Hg5 mi
5:00 pm66 °FRain. Cloudy.2 mph89%29.93 "Hg5 mi
4:00 pm68 °FLight rain. Cloudy.5 mph86%29.94 "Hg11 mi
3:00 pm69 °FLight rain. Cloudy.3 mph76%29.96 "Hg19 mi
2:00 pm70 °FLight rain. Cloudy.2 mph73%29.96 "Hg12 mi
1:00 pm71 °FMild.3 mph63%29.96 "Hg28 mi
12:00 pm72 °FMild.3 mph65%29.97 "Hg25 mi
11:00 am69 °FMild.3 mph68%29.99 "Hg22 mi
10:00 am68 °FMild.3 mph69%30.00 "Hg25 mi
Weather by CustomWeather, © 2017

See weather overviewHow to use our weather pages